FW8566 Weather Reports


Display with metric or nautical units.
time (UTC)temp
F
wind
direction
speed
MPH
gust
MPH
rain 1hr
in
rain 24hr
in
rain mn
in
humidity
%
barometer
mb
20260502203000 49 168 2.0 2.0 0.00 0.01 0.01 95 1011.3
20260502202456 49 168 2.0 2.0 0.00 0.01 0.01 95 1011.3
20260502201955 49 174 5.0 5.0 0.00 0.01 0.01 95 1011.3
20260502201450 49 174 5.0 5.0 0.00 0.01 0.01 95 1011.3
20260502200947 49 168 5.0 5.0 0.00 0.01 0.01 95 1011.3
20260502200443 49 168 3.0 3.0 0.00 0.01 0.01 96 1011.3
20260502195941 49 168 2.0 2.0 0.00 0.01 0.01 96 1011.3
20260502195438 49 168 4.0 4.0 0.00 0.01 0.01 96 1011.3
20260502194934 49 174 4.0 4.0 0.00 0.01 0.01 96 1011.3
20260502194431 49 174 3.0 3.0 0.00 0.01 0.01 96 1011.7
20260502193927 49 168 2.0 2.0 0.00 0.01 0.01 96 1011.7
20260502193424 49 168 6.0 7.0 0.00 0.01 0.01 96 1011.7
20260502192919 49 162 4.0 4.0 0.00 0.01 0.01 96 1011.7
20260502192417 49 198 2.0 2.0 0.00 0.01 0.01 96 1011.7
20260502191914 49 192 4.0 4.0 0.00 0.01 0.01 96 1011.7
20260502191412 49 180 6.0 6.0 0.00 0.01 0.01 96 1012.0
20260502190909 49 168 5.0 6.0 0.00 0.01 0.01 96 1012.0
20260502190406 49 174 4.0 4.0 0.00 0.01 0.01 96 1012.0
20260502185902 49 168 5.0 5.0 0.00 0.01 0.01 96 1012.0
20260502185357 49 192 8.0 9.0 0.00 0.01 0.01 96 1012.0
20260502184855 49 174 5.0 6.0 0.00 0.01 0.01 97 1012.0
20260502184350 48 186 9.0 9.0 0.00 0.01 0.01 97 1012.3
20260502183847 48 192 9.0 11.0 0.00 0.01 0.01 97 1012.3
20260502183343 48 168 5.0 5.0 0.00 0.01 0.01 97 1012.3
20260502182838 48 155 6.0 7.0 0.00 0.01 0.01 97 1012.3
20260502182334 48 168 5.0 6.0 0.00 0.01 0.01 98 1012.3
20260502181831 48 155 6.0 6.0 0.00 0.01 0.01 97 1012.3
20260502181330 48 162 7.0 8.0 0.00 0.01 0.01 98 1012.0
20260502180827 48 168 6.0 6.0 0.00 0.01 0.01 97 1012.0
20260502180324 48 168 5.0 5.0 0.00 0.01 0.01 97 1012.0
20260502170243 48 204 5.0 6.0 0.00 0.00 0.00 97 1012.3
20260502164231 48 168 6.0 6.0 0.00 0.00 0.00 95 1012.7
20260502163726 48 174 4.0 4.0 0.00 0.00 0.00 95 1012.7
20260502163223 48 180 4.0 4.0 0.00 0.00 0.00 96 1012.7
20260502162720 48 180 2.0 2.0 0.00 0.00 0.00 95 1012.7
20260502162217 48 180 4.0 4.0 0.00 0.00 0.00 96 1012.7
20260502161714 48 180 2.0 2.0 0.00 0.00 0.00 95 1012.7
20260502161210 48 222 2.0 2.0 0.00 0.00 0.00 95 1012.7
20260502160709 48 222 5.0 6.0 0.00 0.00 0.00 95 1012.7
20260502160208 48 192 4.0 4.0 0.00 0.00 0.00 95 1012.7
20260502152121 49 156 11.0 12.0 0.00 0.00 0.00 92 1013.0
20260502151618 49 168 12.0 13.0 0.00 0.00 0.00 92 1013.0
20260502151115 49 180 6.0 7.0 0.00 0.00 0.00 91 1013.0
20260502150613 49 168 4.0 4.0 0.00 0.00 0.00 90 1013.0
20260502150109 49 174 4.0 4.0 0.00 0.00 0.00 90 1013.0
20260502130457 50 251 2.0 2.0 0.00 0.00 0.00 88 1013.0
20260502123440 50 302 2.0 2.0 0.00 0.00 0.00 86 1013.4
20260502122937 50 273 2.0 2.0 0.00 0.00 0.00 86 1013.7
20260502122433 50 272 9.0 9.0 0.00 0.00 0.00 86 1013.7
20260502121932 50 244 2.0 2.0 0.00 0.00 0.00 86 1013.7
20260502121428 50 263 3.0 3.0 0.00 0.00 0.00 85 1013.4
20260502120926 50 216 4.0 4.0 0.00 0.00 0.00 86 1013.4
20260502120422 50 216 4.0 4.0 0.00 0.00 0.00 86 1013.4
20260502115919 50 216 4.0 4.0 0.00 0.00 0.00 85 1013.0
20260502115416 50 216 2.0 2.0 0.00 0.00 0.00 85 1013.0
20260502114912 50 213 2.0 2.0 0.00 0.00 0.00 86 1013.0
20260502114409 50 213 2.0 2.0 0.00 0.00 0.00 87 1012.7
20260502113906 49 213 0.0 0.0 0.00 0.00 0.00 88 1012.7
20260502113404 49 213 4.0 5.0 0.00 0.00 0.00 89 1012.7
20260502112902 49 213 0.0 0.0 0.00 0.00 0.00 90 1013.0
20260502112400 49 213 3.0 3.0 0.00 0.00 0.00 90 1013.0
20260502111857 49 213 4.0 4.0 0.00 0.00 0.00 90 1013.0
20260502111354 48 213 4.0 4.0 0.00 0.00 0.00 90 1013.0
20260502110851 48 213 2.0 2.0 0.00 0.00 0.00 90 1013.0
20260502110349 48 213 2.0 2.0 0.00 0.00 0.00 91 1013.0
20260502105846 48 213 4.0 4.0 0.00 0.00 0.00 90 1012.7
20260502105343 48 204 6.0 6.0 0.00 0.00 0.00 90 1012.7
20260502104841 48 204 4.0 4.0 0.00 0.00 0.00 91 1012.7
20260502104338 48 222 3.0 3.0 0.00 0.00 0.00 91 1012.7
20260502103835 47 222 5.0 5.0 0.00 0.00 0.00 91 1012.7
20260502103333 47 222 4.0 4.0 0.00 0.00 0.00 91 1012.7
20260502102830 47 222 6.0 6.0 0.00 0.00 0.00 92 1012.7
20260502102326 47 222 4.0 4.0 0.00 0.00 0.00 92 1012.7
20260502101824 47 222 4.0 5.0 0.00 0.00 0.00 91 1012.7
20260502101322 47 222 5.0 6.0 0.00 0.00 0.00 91 1012.7
20260502100820 48 222 4.0 4.0 0.00 0.00 0.00 89 1012.7
20260502100319 48 222 4.0 5.0 0.00 0.00 0.00 89 1012.7
20260502091253 48 216 7.0 7.0 0.00 0.00 0.00 88 1012.7
20260502090750 48 210 6.0 7.0 0.00 0.00 0.00 88 1012.7
20260502090247 48 210 8.0 9.0 0.00 0.00 0.00 87 1012.7
20260502071147 48 201 5.0 5.0 0.00 0.00 0.00 83 1012.7
20260502070645 47 207 6.0 6.0 0.00 0.00 0.00 84 1012.7
20260502070143 47 240 5.0 5.0 0.00 0.00 0.00 85 1012.7
20260502065641 48 240 4.0 5.0 0.00 0.00 0.00 84 1012.7
20260502065138 48 240 5.0 5.0 0.00 0.00 0.00 85 1012.7
20260502064637 48 240 4.0 4.0 0.00 0.00 0.00 84 1012.7
20260502064134 48 240 5.0 5.0 0.00 0.00 0.00 84 1012.7
20260502063632 48 240 5.0 5.0 0.00 0.00 0.00 84 1012.7
20260502063129 47 240 5.0 5.0 0.00 0.00 0.00 83 1012.7
20260502062626 47 258 4.0 4.0 0.00 0.00 0.00 82 1012.7
20260502062124 48 258 3.0 3.0 0.00 0.00 0.00 81 1012.7
20260502061622 48 259 3.0 3.0 0.00 0.00 0.00 81 1012.7
20260502061119 48 260 4.0 4.0 0.00 0.00 0.00 80 1012.7
20260502060619 48 237 3.0 3.0 0.00 0.00 0.00 80 1012.7
20260502060116 48 237 5.0 5.0 0.00 0.00 0.00 79 1012.7
20260502055614 48 237 6.0 6.0 0.00 0.00 0.00 80 1013.0
20260502055112 48 246 6.0 6.0 0.00 0.00 0.00 78 1013.0
20260502054611 48 257 6.0 6.0 0.00 0.00 0.00 79 1013.0
20260502054107 49 258 6.0 6.0 0.00 0.00 0.00 79 1013.0
20260502053604 49 222 4.0 4.0 0.00 0.00 0.00 79 1013.0
20260502053102 49 245 6.0 6.0 0.00 0.00 0.00 79 1013.0
20260502052600 49 244 6.0 6.0 0.00 0.00 0.00 79 1013.0
20260502052058 49 243 5.0 6.0 0.00 0.00 0.00 78 1013.0
20260502051556 49 246 6.0 7.0 0.00 0.00 0.00 77 1013.4
20260502051053 49 234 5.0 6.0 0.00 0.00 0.00 77 1013.4
20260502050549 49 232 6.0 7.0 0.00 0.00 0.00 78 1013.4
20260502050046 49 228 6.0 6.0 0.00 0.00 0.00 77 1013.7
20260502045543 49 234 5.0 5.0 0.00 0.00 0.00 77 1013.7
20260502045040 49 240 6.0 7.0 0.00 0.00 0.00 79 1013.7
20260502044536 49 243 5.0 5.0 0.00 0.00 0.00 79 1013.4
20260502044033 49 245 2.0 2.0 0.00 0.00 0.00 80 1013.4
20260502043531 49 244 4.0 4.0 0.00 0.00 0.00 80 1013.4
20260502043027 48 240 4.0 5.0 0.00 0.00 0.00 79 1013.4
20260502042522 48 246 3.0 3.0 0.00 0.00 0.00 81 1013.4
20260502042020 48 246 4.0 4.0 0.00 0.00 0.00 81 1013.4
20260502041518 48 246 4.0 4.0 0.00 0.00 0.00 81 1013.4
20260502041014 49 246 2.0 2.0 0.00 0.00 0.00 79 1013.4
20260502040511 49 246 3.0 3.0 0.00 0.00 0.00 77 1013.4
20260502040008 49 246 3.0 3.0 0.00 0.00 0.00 77 1013.7
20260502035503 49 258 4.0 4.0 0.00 0.00 0.00 75 1013.7
20260502035001 49 264 4.0 4.0 0.00 0.00 0.00 75 1013.7
20260502034459 50 265 5.0 5.0 0.00 0.00 0.00 74 1013.7
20260502033958 50 265 4.0 4.0 0.00 0.00 0.00 74 1013.7
20260502033455 50 258 5.0 5.0 0.00 0.00 0.00 73 1013.7
20260502032951 50 239 6.0 6.0 0.00 0.00 0.00 73 1013.7
20260502032448 50 263 3.0 3.0 0.00 0.00 0.00 73 1013.7
20260502031945 50 264 5.0 5.0 0.00 0.00 0.00 72 1013.7
20260502031443 50 268 6.0 6.0 0.00 0.00 0.00 72 1013.7
20260502030941 50 252 4.0 4.0 0.00 0.00 0.00 72 1013.7
20260502030439 50 282 4.0 5.0 0.00 0.00 0.00 72 1013.7
20260502025937 50 260 6.0 7.0 0.00 0.00 0.00 72 1013.4
20260502025433 50 276 9.0 11.0 0.00 0.00 0.00 72 1013.4
20260502024931 50 255 6.0 7.0 0.00 0.00 0.00 72 1013.4
20260502024430 51 246 8.0 8.0 0.00 0.00 0.00 72 1013.7
20260502023927 50 251 6.0 6.0 0.00 0.00 0.00 72 1013.7
20260502023425 50 250 8.0 8.0 0.00 0.00 0.00 72 1013.7
20260502022922 50 243 6.0 7.0 0.00 0.00 0.00 73 1013.0
20260502022418 50 266 7.0 8.0 0.00 0.00 0.00 73 1013.0
20260502021915 50 255 5.0 6.0 0.00 0.00 0.00 73 1013.0
20260502021413 50 254 9.0 9.0 0.00 0.00 0.00 73 1013.4
20260502020910 50 257 9.0 9.0 0.00 0.00 0.00 73 1013.4
20260502020408 50 256 8.0 8.0 0.00 0.00 0.00 74 1013.4
20260502015904 50 270 4.0 4.0 0.00 0.00 0.00 74 1013.7
20260502015401 50 269 5.0 6.0 0.00 0.00 0.00 75 1013.7
20260502014858 50 257 5.0 5.0 0.00 0.00 0.00 74 1013.7
20260502014355 50 264 6.0 6.0 0.00 0.00 0.00 74 1013.4
20260502013851 50 260 9.0 9.0 0.00 0.00 0.00 74 1013.4
20260502013347 50 252 5.0 5.0 0.00 0.00 0.00 75 1013.4
20260502012844 50 258 6.0 7.0 0.00 0.00 0.00 75 1013.4
20260502012342 50 252 5.0 6.0 0.00 0.00 0.00 75 1013.4
20260502011839 50 237 6.0 7.0 0.00 0.00 0.00 75 1013.4
20260502011335 50 259 9.0 9.0 0.00 0.00 0.00 74 1013.0
20260502010832 50 264 5.0 5.0 0.00 0.00 0.00 74 1013.0
20260502010328 50 252 6.0 7.0 0.00 0.00 0.00 74 1013.0
20260502005825 50 228 9.0 9.0 0.00 0.00 0.00 73 1013.0
20260502005324 51 233 6.0 7.0 0.00 0.00 0.00 73 1013.0
20260502004821 51 246 6.0 6.0 0.00 0.00 0.00 73 1013.0
20260502004316 51 264 9.0 9.0 0.00 0.00 0.00 73 1012.7
20260502003815 51 228 11.0 12.0 0.00 0.00 0.00 73 1012.7
20260502003311 50 244 9.0 9.0 0.00 0.00 0.00 73 1012.7
20260502002807 50 249 11.0 13.0 0.00 0.00 0.00 74 1012.7
20260502002306 50 204 8.0 8.0 0.00 0.00 0.00 74 1012.7
20260502001802 50 256 6.0 7.0 0.00 0.00 0.00 75 1012.7
20260502001300 50 246 6.0 7.0 0.00 0.00 0.00 76 1012.3
20260502000757 50 245 7.0 7.0 0.00 0.00 0.00 75 1012.3
20260502000256 51 222 11.0 11.0 0.00 0.00 0.00 74 1012.3
20260501235756 51 238 8.0 9.0 0.00 0.00 0.00 73 1011.7
20260501235252 51 222 9.0 9.0 0.00 0.00 0.00 72 1011.7
20260501234748 51 234 11.0 11.0 0.00 0.00 0.00 72 1011.7
20260501234245 52 238 11.0 11.0 0.00 0.00 0.00 71 1011.7
20260501233743 51 222 12.0 14.0 0.00 0.00 0.00 70 1011.7
20260501233241 51 222 6.0 7.0 0.00 0.00 0.00 72 1011.7
20260501232736 52 228 5.0 5.0 0.00 0.00 0.00 72 1011.7
20260501232233 52 250 6.0 6.0 0.00 0.00 0.00 70 1011.7
20260501231731 53 239 7.0 7.0 0.00 0.00 0.00 69 1011.7
20260501231229 53 232 7.0 7.0 0.00 0.00 0.00 67 1011.0
20260501230727 53 270 8.0 9.0 0.00 0.00 0.00 64 1011.0
20260501230226 55 233 9.0 9.0 0.00 0.00 0.00 61 1011.0
20260501225723 55 251 6.0 7.0 0.00 0.00 0.00 57 1011.3
20260501225220 55 246 6.0 6.0 0.00 0.00 0.00 56 1011.3
20260501224715 56 246 8.0 9.0 0.00 0.00 0.00 53 1011.3
20260501224213 55 252 8.0 8.0 0.00 0.00 0.00 51 1011.0
20260501223709 55 244 4.0 5.0 0.00 0.00 0.00 54 1011.0
20260501223206 55 237 8.0 8.0 0.00 0.00 0.00 55 1011.0
20260501222702 55 220 9.0 9.0 0.00 0.00 0.00 51 1011.0
20260501222159 56 247 11.0 12.0 0.00 0.00 0.00 44 1011.0
20260501221656 56 250 8.0 9.0 0.00 0.00 0.00 46 1011.0
20260501221153 56 234 9.0 9.0 0.00 0.00 0.00 45 1011.0
20260501220651 57 246 9.0 9.0 0.00 0.00 0.00 45 1011.0
20260501220148 56 255 8.0 9.0 0.00 0.00 0.00 46 1011.0
20260501215645 56 201 7.0 8.0 0.00 0.00 0.00 49 1011.0
20260501215140 56 240 11.0 12.0 0.00 0.00 0.00 47 1011.0
20260501214635 56 198 7.0 8.0 0.00 0.00 0.00 45 1011.0
20260501214131 57 235 12.0 13.0 0.00 0.00 0.00 44 1010.6
20260501213628 56 258 9.0 11.0 0.00 0.00 0.00 46 1010.6
20260501213124 56 247 11.0 12.0 0.00 0.00 0.00 49 1010.6
20260501212621 56 270 11.0 11.0 0.00 0.00 0.00 47 1011.0
20260501212117 56 257 16.0 18.0 0.00 0.00 0.00 47 1011.0
20260501211614 56 239 16.0 16.0 0.00 0.00 0.00 45 1011.0
20260501211112 56 257 13.0 14.0 0.00 0.00 0.00 45 1011.0
20260501210609 56 234 14.0 15.0 0.00 0.00 0.00 48 1011.0
20260501210105 55 222 12.0 13.0 0.00 0.00 0.00 49 1010.6
20260501205601 56 218 15.0 17.0 0.00 0.00 0.00 44 1010.6
20260501205059 56 228 6.0 7.0 0.00 0.00 0.00 46 1010.6
20260501204555 55 279 11.0 11.0 0.00 0.00 0.00 47 1011.0
20260501204051 55 244 9.0 9.0 0.00 0.00 0.00 51 1011.0
20260501203548 54 233 17.0 18.0 0.00 0.00 0.00 54 1011.0